Regional Weather Roundup
Issued by NWS

Home | Current Version | Previous Version | Text Only | Print | Product List | Glossary On
Versions: 1 2 3 4 5 6 7 8 9 10 11 12 13 14 15 16 17 18 19 20 21 22 23 24 25 26 27 28 29 30 31 32 33 34 35 36 37 38 39 40 41 42 43 44 45 46 47 48 49 50
000
ASHW40 PHFO 181543
RWRHI

WEATHER ROUNDUP FOR HAWAII
NATIONAL WEATHER SERVICE HONOLULU HI
500 AM HST THU SEP 18 2014

THIS IS AN AUTOMATED REPORT THAT HAS NOT BEEN QUALITY CONTROLLED.

NOTE..."FAIR" INDICATES FEW OR NO CLOUDS BELOW 12,000 FEET WITH NO
SIGNIFICANT WEATHER AND/OR OBSTRUCTIONS TO VISIBILITY.

* - THESE SITES REPORT LIMITED FIELDS

HIZ001>004-181600-
KAUAI-NIIHAU-

CITY           SKY/WX    TMP DP  RH WIND       PRES   REMARKS
LIHUE APT      CLEAR     74  71  91 W3        29.93S
PORT ALLEN*      N/A     73 N/A N/A VRB3        N/A
POIPU*           N/A     73 N/A N/A VRB3        N/A
PRINCEVILLE*   NOT AVBL
KOKOLE POINT*    N/A     75 N/A N/A MISG        N/A
MOLOAA DAIRY*  NOT AVBL
WAIMEA HTS*      N/A     73  66  78 NE1         N/A
PUU OPAE*        N/A     66  63  88 CALM        N/A
PUU LUA*       NOT AVBL
MAKAHA RIDGE*  NOT AVBL
$$

HIZ005>011-181600-
OAHU-

CITY           SKY/WX    TMP DP  RH WIND       PRES   REMARKS
HONOLULU       PTCLDY    76  69  79 N3        29.91R
KALAELOA       CLEAR     72  69  90 CALM      29.92S
KANEOHE MCB    CLEAR     73  72  95 CALM      29.92R
WHEELER FIELD  FAIR      69  66  89 CALM      29.93S
BELLOWS*         N/A    N/A N/A N/A SW2         N/A
KAHUKU*          N/A    N/A N/A N/A NE1         N/A
WHEELER*       NOT AVBL
WAIANAE HARBOR NOT AVBL
DILLINGHAM*      N/A     70  68  94 CALM        N/A
KAHUKU TRN*      N/A     72  72 100 E3          N/A
KAWAILOA*      NOT AVBL
KII*             N/A     73  72  94 SE2         N/A
MAKUA RANGE*     N/A     73  66  78 E8          N/A
OAHU FOREST NW   N/A     66  66 100 N8          N/A
SCHOFIELD BRK*   N/A     66  66 100 MISG        N/A
SCHOFIELD S*   NOT AVBL
WAIANAE VLY*     N/A     68  64  88 N6          N/A
KUAOKALA*        N/A     73  64  73 CALM        N/A
HONOULIUULI*   NOT AVBL
MOKUOLOE IS*     N/A    N/A N/A N/A MISG        N/A
PALEHUA*         N/A     81  68  65 CALM        N/A
WAIAWA PHB*    NOT AVBL
$$

HIZ012>013-181600-
MOLOKAI-

CITY           SKY/WX    TMP DP  RH WIND       PRES   REMARKS
MOLOKAI AIRPT  CLEAR     70  70 100 CALM      29.93S
KALAUPAPA      NOT AVBL
MAKAPULAPAI*     N/A     73  68  83 SE3         N/A
MOLOKAI 1*       N/A     64  64 100 N1          N/A
PUU ALII*        N/A     60  60  98 SE1         N/A
$$

HIZ016-181600-
KAHOOLAWE-

CITY           SKY/WX    TMP DP  RH WIND       PRES   REMARKS
KAHOOLAWE*       N/A     70 N/A N/A E6          N/A
HAKIOAWA*      NOT AVBL
HONOKANAIA*      N/A     75  69  82 NE5       29.93S
KANELOA*         N/A     75  70  83 E7        29.15F
KEALIALALO*    NOT AVBL
LUA MAKIKA*    NOT AVBL
$$

HIZ014>015-181600-
LANAI-

CITY           SKY/WX    TMP DP  RH WIND       PRES   REMARKS
LANAI CITY     FAIR      68  68 100 E3        29.98S
LANAI 1*         N/A     72  72 100 NE10        N/A
$$

HIZ017>028-181600-
MAUI-

CITY           SKY/WX    TMP DP  RH WIND       PRES   REMARKS
KAHULUI        CLEAR     72  68  87 S5        29.91S
KAPALUA-W MAUI NOT AVBL
HANA AIRPORT   CLEAR     68  68 100 CALM      29.95R
HANA*            N/A     72 N/A N/A S5          N/A
HALEAKALA SUMM   N/A     50  -2  11 E9          N/A
MAALAEA BAY*   NOT AVBL
HALEAKALA*     NOT AVBL
KAUPO GAP*     NOT AVBL
KULA 1*          N/A     52  47  82 CALM        N/A
$$

HIZ023>026-181600-
BIG ISLAND OF HAWAII COAST AND LOWER SLOPES-

CITY           SKY/WX    TMP DP  RH WIND       PRES   REMARKS
KAILUA KONA    LGT RAIN  76  71  85 NE5       29.90S
HILO           CLEAR     71  61  70 SW7       29.92R
HONOKAA*       NOT AVBL
KAWAIHAE MWT*    N/A     77 N/A N/A NE6         N/A
KAWAIHAE*        N/A     79 N/A N/A NE5         N/A
SOUTH POINT*     N/A     68 N/A N/A N8          N/A
UPOLU AIRPORT*   N/A    N/A N/A N/A SE8         N/A
KAMUELA*       SUNNY     55  54  94 NE6       30.05R
HAKALAU*         N/A     43  37  81 W6          N/A
KALOKO-HONOKO*   N/A     72  70  94 NE3       29.89R
PALI 2*          N/A     64  59  82 N10         N/A
KEALAKOMO*       N/A     79  63  57 VRB8G15     N/A
KAUPULEHU*       N/A     72  61  68 SE6         N/A
KAPAPALA*        N/A     61  59  94 NW5         N/A
LOWER KAHUKU*  NOT AVBL
PUHE CS*       NOT AVBL
PUHO CS*         N/A     73  64  73 NE3         N/A
PTA KEAMUKU*     N/A     57  54  88 SE3         N/A
WAIKOLOA*        N/A     68  57  68 E7          N/A
$$

HIZ027>028-181600-
BIG ISLAND OF HAWAII INTERIOR AND SUMMMITS-

CITY           SKY/WX    TMP DP  RH WIND       PRES   REMARKS
BRADSHAW FIELD CLOUDY    49  42  78 SE3       30.27F
MK VISITOR CEN NOT AVBL
MAUNA KEA*       N/A     43 -15   8 CALM        N/A
MAUNA LOA*       N/A     39   9  28 MISG        N/A
MAUNA LOA 1*     N/A    N/A N/A N/A MISG        N/A
PTA KIPUKA*      N/A     54  48  82 SE3         N/A
PTA RANGE 17*    N/A     54  46  76 E6          N/A
PTA WEST*        N/A     55  50  82 SE9         N/A
NENE CABIN*    NOT AVBL
AHUMOA*          N/A     51  47  86 E7          N/A
PTA PORTABLE*  NOT AVBL
PUU MALI*      NOT AVBL
$$

HIC003-181600-
NORTHWEST ISLANDS-

CITY           SKY/WX    TMP DP  RH WIND       PRES   REMARKS
MIDWAY ISLAND  CLEAR     81  75  83 E10       30.05S
MIDWAY NOS*    NOT AVBL
FRENCH FRIGATE NOT AVBL
$$

PHZ110>124-180-181600-
BUOY REPORTS

STATION/POSITION TIME  TEMP    WIND        PRES    WAVE   SWELL
                       AIR SEA DIR/SP/G            HT/PER HT/DIR
                 (UTC) (F)     (DEG/KT/KT) (MB)    (FT/S) (FT/D)
BUOY 51001       NOT AVBL
BUOY 51101       NOT AVBL
BUOY 51100       1500             CALM       N/A
BUOY 51003       1500   81 83  110/  4/  6 1012.6S   5/11   5
BUOY 51004       1445   80 81   60/ 14/ 16 1011.6F   6/11   5/130
BARBERS PT BUOY  NOT AVBL
WAIMEA BAY BUOY  1500      82                N/A     5/11   2/340
KAILUA BAY BUOY  1500      83                N/A     5/11   3/360
LANAI BUOY       NOT AVBL
BARBERS PT 2     1500      83                N/A     4/12   3/170
PAUWELA MAUI     1500      81                N/A     4/ 8   2/350
HILO             1500      81                N/A     6/12   3/ 20
KANEOHE BAY BUOY NOT AVBL
HANALEI KAUAI    NOT AVBL
KAHULUI HARBOR   1500   78 84  290/  6/  8 1012.8R
HONOLULU HARBOR  1500   78     340/  3/  5 1013.3R
KILO NALU        NOT AVBL
HILO HARBOR      1500   71     220/  5/  6 1012.9R
MOKUOLOE         1500      85              1013.4R
NAWILIWILI       1500      83                N/A
WHOTS BUOY       NOT AVBL
BUOY 51028       NOT AVBL
$$

......................KEY........................................
  SKY/WX - SKY CONDITIONS/PRESENT WEATHER
  TMP    - TEMPERATURE IN FAHRENHEIT
  DWPT   - DEWPOINT IN FAHRENHEIT
  RH     - RELATIVE HUMIDITY IN PERCENT
  WIND   - DIRECTION AND SPEED /MPH FOR ISLANDS...KTS FOR BUOYS/
  PRES   - MEAN SEA LEVEL PRESSURE IN INCHES OF HG
  VSB    - VISIBILITY IN MILES
  HX     - HEAT INDEX
  WCI    - WIND CHILL INDEX
  VRB    - VARIABLE WIND DIRECTION
  N/A    - NOT AVAILABLE


USA.gov is the U.S. government's official web portal to all federal, state and local government web resources and services.